| time (UTC) | temp C | wind direction | speed KPH | gust KPH | rain 1hr cm | rain 24hr cm | rain mn cm | humidity % | barometer mb |
| 20260505183020 | 12 | 70 | 1.6 | 8.0 | 0.00 | 0.00 | 0.00 | 70 | 1008.1 |
| 20260505181514 | 12 | 78 | 1.6 | 6.4 | 0.00 | 0.00 | 0.00 | 68 | 1008.0 |
| 20260505180018 | 12 | 82 | 0.0 | 9.7 | 0.00 | 0.00 | 0.00 | 68 | 1008.1 |
| 20260505174517 | 12 | 60 | 0.0 | 9.7 | 0.00 | 0.00 | 0.00 | 67 | 1008.1 |
| 20260505173014 | 12 | 271 | 0.0 | 6.4 | 0.00 | 0.00 | 0.00 | 65 | 1008.3 |
| 20260505171513 | 13 | 41 | 1.6 | 12.9 | 0.00 | 0.00 | 0.00 | 65 | 1008.2 |
| 20260505170114 | 13 | 3 | 1.6 | 12.9 | 0.00 | 0.00 | 0.00 | 64 | 1008.2 |
| 20260505164511 | 13 | 41 | 1.6 | 11.3 | 0.00 | 0.00 | 0.00 | 64 | 1008.1 |
| 20260505163013 | 13 | 60 | 1.6 | 11.3 | 0.00 | 0.00 | 0.00 | 61 | 1008.1 |
| 20260505161510 | 13 | 60 | 3.2 | 14.5 | 0.00 | 0.00 | 0.00 | 62 | 1008.1 |
| 20260505153006 | 13 | 210 | 3.2 | 12.9 | 0.00 | 0.00 | 0.00 | 62 | 1008.4 |
| 20260505151504 | 13 | 103 | 1.6 | 8.0 | 0.00 | 0.00 | 0.00 | 62 | 1008.5 |
| 20260505130106 | 13 | 88 | 4.8 | 12.9 | 0.00 | 0.00 | 0.00 | 62 | 1008.7 |
| 20260505124558 | 13 | 101 | 4.8 | 22.5 | 0.00 | 0.00 | 0.00 | 61 | 1008.8 |
| 20260505123059 | 14 | 345 | 4.8 | 19.3 | 0.00 | 0.00 | 0.00 | 59 | 1008.7 |
| 20260505121625 | 13 | 342 | 4.8 | 20.9 | 0.00 | 0.00 | 0.00 | 60 | 1008.8 |
| 20260505120056 | 15 | 275 | 3.2 | 12.9 | 0.00 | 0.00 | 0.00 | 58 | 1008.6 |
| 20260505114554 | 14 | 25 | 1.6 | 12.9 | 0.00 | 0.00 | 0.00 | 59 | 1008.8 |
| 20260505113053 | 15 | 114 | 3.2 | 16.1 | 0.00 | 0.00 | 0.00 | 58 | 1008.8 |
| 20260505111551 | 13 | 295 | 3.2 | 16.1 | 0.00 | 0.00 | 0.00 | 59 | 1008.7 |
| 20260505101553 | 14 | 50 | 4.8 | 16.1 | 0.00 | 0.00 | 0.00 | 61 | 1009.1 |
| 20260505100042 | 14 | 79 | 1.6 | 9.7 | 0.00 | 0.00 | 0.00 | 62 | 1009.1 |
| 20260505094539 | 13 | 51 | 8.0 | 16.1 | 0.00 | 0.00 | 0.00 | 64 | 1009.1 |
| 20260505093042 | 13 | 96 | 1.6 | 12.9 | 0.00 | 0.00 | 0.00 | 64 | 1009.1 |
| 20260505091540 | 13 | 4 | 1.6 | 8.0 | 0.00 | 0.00 | 0.00 | 65 | 1009.2 |
| 20260505090048 | 12 | 64 | 4.8 | 16.1 | 0.00 | 0.00 | 0.00 | 68 | 1009.2 |
| 20260505084528 | 12 | 130 | 4.8 | 9.7 | 0.00 | 0.00 | 0.00 | 68 | 1009.3 |
| 20260505083028 | 11 | 61 | 3.2 | 11.3 | 0.00 | 0.00 | 0.00 | 69 | 1009.3 |
| 20260505081529 | -17 | 0.0 | 0.0 | 0.00 | 0.00 | 0.00 | 1009.6 | ||
| 20260505080022 | -17 | 0.0 | 0.0 | 0.00 | 0.00 | 0.00 | 1009.6 | ||
| 20260505074514 | 10 | 131 | 1.6 | 11.3 | 0.00 | 0.03 | 0.00 | 79 | 1009.6 |
| 20260505073010 | 10 | 32 | 3.2 | 11.3 | 0.00 | 0.03 | 0.00 | 83 | 1009.6 |
| 20260505071506 | 9 | 99 | 0.0 | 0.0 | 0.00 | 0.03 | 0.00 | 89 | 1009.7 |
| 20260505070006 | 8 | 51 | 0.0 | 0.0 | 0.00 | 0.05 | 0.00 | 90 | 1009.7 |
| 20260505064506 | 8 | 253 | 0.0 | 0.0 | 0.00 | 0.05 | 0.00 | 92 | 1009.8 |
| 20260505063002 | 8 | 340 | 0.0 | 0.0 | 0.00 | 0.05 | 0.00 | 93 | 1009.7 |
| 20260505061502 | 8 | 128 | 0.0 | 0.0 | 0.00 | 0.05 | 0.00 | 93 | 1009.8 |
| 20260505060005 | 8 | 127 | 0.0 | 0.0 | 0.00 | 0.05 | 0.00 | 93 | 1009.8 |
| 20260505054601 | 8 | 127 | 0.0 | 0.0 | 0.00 | 0.05 | 0.00 | 93 | 1009.8 |
| 20260505053108 | 8 | 127 | 0.0 | 0.0 | 0.00 | 0.05 | 0.00 | 93 | 1009.7 |
| 20260505051559 | 8 | 127 | 0.0 | 0.0 | 0.00 | 0.05 | 0.00 | 93 | 1009.7 |
| 20260505041557 | 8 | 136 | 0.0 | 0.0 | 0.00 | 0.05 | 0.00 | 93 | 1009.4 |
| 20260505040057 | 8 | 137 | 0.0 | 0.0 | 0.00 | 0.05 | 0.00 | 93 | 1009.3 |
| 20260505034555 | 8 | 137 | 0.0 | 0.0 | 0.00 | 0.05 | 0.00 | 93 | 1009.3 |
| 20260505033112 | 8 | 137 | 0.0 | 0.0 | 0.00 | 0.05 | 0.00 | 93 | 1009.3 |
| 20260505031555 | 8 | 131 | 0.0 | 0.0 | 0.00 | 0.05 | 0.00 | 93 | 1009.6 |
| 20260505030054 | 8 | 131 | 0.0 | 0.0 | 0.00 | 0.05 | 0.00 | 93 | 1009.6 |
| 20260505024557 | 8 | 136 | 0.0 | 0.0 | 0.00 | 0.05 | 0.00 | 93 | 1009.5 |
| 20260505023101 | 7 | 193 | 0.0 | 0.0 | 0.00 | 0.05 | 0.00 | 93 | 1009.6 |
| 20260505021550 | 7 | 227 | 0.0 | 0.0 | 0.00 | 0.05 | 0.00 | 93 | 1009.7 |
| 20260505020051 | 7 | 238 | 0.0 | 0.0 | 0.00 | 0.05 | 0.00 | 92 | 1009.7 |
| 20260505014546 | 7 | 165 | 0.0 | 0.0 | 0.00 | 0.05 | 0.00 | 92 | 1009.8 |
| 20260505013045 | 7 | 165 | 0.0 | 0.0 | 0.00 | 0.05 | 0.00 | 92 | 1009.9 |
| 20260505011544 | 7 | 165 | 0.0 | 0.0 | 0.00 | 0.05 | 0.00 | 92 | 1009.9 |
| 20260505010044 | 8 | 148 | 0.0 | 0.0 | 0.00 | 0.05 | 0.00 | 92 | 1009.9 |
| 20260505004547 | 8 | 148 | 0.0 | 0.0 | 0.00 | 0.05 | 0.00 | 91 | 1010.0 |
| 20260505003039 | 8 | 148 | 0.0 | 0.0 | 0.00 | 0.05 | 0.00 | 91 | 1010.1 |
| 20260505001538 | 8 | 148 | 0.0 | 0.0 | 0.00 | 0.05 | 0.00 | 91 | 1010.3 |
| 20260505000037 | 8 | 153 | 0.0 | 0.0 | 0.00 | 0.05 | 0.00 | 91 | 1010.3 |
| 20260504234558 | 8 | 156 | 0.0 | 0.0 | 0.00 | 0.05 | 0.00 | 91 | 1010.6 |
| 20260504233036 | 8 | 157 | 0.0 | 0.0 | 0.00 | 0.05 | 0.00 | 90 | 1010.3 |
| 20260504231542 | 8 | 157 | 0.0 | 0.0 | 0.00 | 0.05 | 0.00 | 90 | 1010.1 |
| 20260504230029 | 9 | 120 | 0.0 | 0.0 | 0.00 | 0.05 | 0.00 | 90 | 1010.1 |
| 20260504224528 | 9 | 119 | 0.0 | 0.0 | 0.00 | 0.05 | 0.05 | 90 | 1010.2 |
| 20260504223026 | 10 | 120 | 0.0 | 0.0 | 0.00 | 0.05 | 0.05 | 90 | 1010.3 |
| 20260504221525 | 10 | 256 | 0.0 | 0.0 | 0.00 | 0.05 | 0.05 | 90 | 1010.4 |
| 20260504220025 | 10 | 229 | 0.0 | 0.0 | 0.00 | 0.05 | 0.05 | 90 | 1010.2 |
| 20260504214533 | 10 | 133 | 0.0 | 0.0 | 0.00 | 0.05 | 0.05 | 90 | 1010.3 |
| 20260504213026 | 10 | 133 | 0.0 | 0.0 | 0.00 | 0.05 | 0.05 | 90 | 1010.5 |
| 20260504211522 | 10 | 136 | 0.0 | 0.0 | 0.00 | 0.05 | 0.05 | 89 | 1010.4 |
| 20260504210021 | 10 | 134 | 0.0 | 0.0 | 0.00 | 0.05 | 0.05 | 89 | 1010.3 |
| 20260504204544 | 10 | 240 | 0.0 | 0.0 | 0.00 | 0.05 | 0.05 | 88 | 1010.3 |
| 20260504203021 | 10 | 194 | 0.0 | 0.0 | 0.00 | 0.05 | 0.05 | 87 | 1010.3 |
| 20260504201517 | 11 | 152 | 0.0 | 0.0 | 0.00 | 0.05 | 0.05 | 87 | 1010.1 |
| 20260504200016 | 11 | 227 | 0.0 | 0.0 | 0.00 | 0.05 | 0.05 | 85 | 1009.8 |
| 20260504194514 | 11 | 227 | 0.0 | 0.0 | 0.00 | 0.23 | 0.05 | 84 | 1009.7 |
| 20260504193021 | 12 | 244 | 0.0 | 0.0 | 0.00 | 0.23 | 0.05 | 82 | 1009.3 |
| 20260504191514 | 12 | 241 | 0.0 | 0.0 | 0.00 | 0.23 | 0.05 | 80 | 1009.1 |
| 20260504190014 | 12 | 238 | 0.0 | 0.0 | 0.00 | 0.23 | 0.05 | 80 | 1009.1 |
| 20260504184512 | 13 | 128 | 0.0 | 0.0 | 0.00 | 0.71 | 0.05 | 77 | 1009.1 |